Back to catalog

COSMOS 729

AliveMilitaryPO
NORAD 7768·PAYLOAD·🇷🇺 Russia

Launched Apr 22, 1975 from Plesetsk Cosmodrome

Loading…

Next Passes (next 24 hours)

TLE

FreshSource: Space-Track

Epoch: Sep 14, 2026, 11:32 UTC

1 07768U 75034A   26257.48070575  .00000035  00000-0  21807-4 0  9995
2 07768  82.9606  64.5180 0021639 275.1408 111.5141 13.73649073575298

Track COSMOS 729 in real time with AllMySat

Download on the App Store